Time,TemperatureF,DewpointF,PressureIn,WindDirection,WindDirectionDegrees,WindSpeedMPH,WindSpeedGustMPH,Humidity,HourlyPrecipIn,Conditions,Clouds,dailyrainin,SoftwareType,DateUTC
2013-01-16 00:03:00,30.3,11.0,30.52,NNE,28,0.0,2.0,44,0.00,,CLR,0.00,VWS V14.01,2013-01-16 08:03:00,
2013-01-16 00:08:00,30.5,11.2,30.51,NNE,28,0.0,3.0,44,0.00,,CLR,0.00,VWS V14.01,2013-01-16 08:08:00,
2013-01-16 00:13:00,30.6,11.3,30.51,NNE,28,0.0,0.0,44,0.00,,CLR,0.00,VWS V14.01,2013-01-16 08:13:00,
2013-01-16 00:18:00,30.6,10.8,30.52,NNE,28,2.0,4.0,43,0.00,,CLR,0.00,VWS V14.01,2013-01-16 08:18:00,
2013-01-16 00:23:00,30.8,10.4,30.52,NNE,28,0.0,1.0,42,0.00,,CLR,0.00,VWS V14.01,2013-01-16 08:23:00,
2013-01-16 00:28:00,31.0,10.1,30.52,NNE,28,1.0,1.0,41,0.00,,CLR,0.00,VWS V14.01,2013-01-16 08:28:00,
2013-01-16 00:33:00,31.3,10.3,30.51,NNE,28,0.0,0.0,41,0.00,,CLR,0.00,VWS V14.01,2013-01-16 08:33:00,
2013-01-16 00:38:00,31.5,9.4,30.51,NNE,28,2.0,3.0,39,0.00,,CLR,0.00,VWS V14.01,2013-01-16 08:38:00,
2013-01-16 00:43:00,31.7,9.6,30.51,NNE,29,1.0,2.0,39,0.00,,CLR,0.00,VWS V14.01,2013-01-16 08:43:00,
2013-01-16 00:49:00,31.8,9.1,30.51,NNE,29,2.0,2.0,38,0.00,,CLR,0.00,VWS V14.01,2013-01-16 08:49:00,
2013-01-16 00:54:00,31.9,9.8,30.51,NNE,29,0.0,0.0,39,0.00,,CLR,0.00,VWS V14.01,2013-01-16 08:54:00,
2013-01-16 00:59:00,31.9,9.2,30.51,NNE,29,0.0,0.0,38,0.00,,CLR,0.00,VWS V14.01,2013-01-16 08:59:00,
2013-01-16 01:04:00,31.9,9.2,30.51,NNE,29,0.0,3.0,38,0.00,,CLR,0.00,VWS V14.01,2013-01-16 09:04:00,
2013-01-16 01:09:00,31.8,9.1,30.50,NNE,29,0.0,0.0,38,0.00,,CLR,0.00,VWS V14.01,2013-01-16 09:09:00,
2013-01-16 01:14:00,31.7,9.6,30.50,NNE,29,0.0,0.0,39,0.00,,CLR,0.00,VWS V14.01,2013-01-16 09:14:00,
2013-01-16 01:19:00,31.5,9.4,30.50,NNE,29,0.0,0.0,39,0.00,,CLR,0.00,VWS V14.01,2013-01-16 09:19:00,
2013-01-16 01:24:00,31.3,9.8,30.50,NNE,29,0.0,0.0,40,0.00,,CLR,0.00,VWS V14.01,2013-01-16 09:24:00,
2013-01-16 01:29:00,31.0,10.1,30.50,NNE,29,0.0,2.0,41,0.00,,CLR,0.00,VWS V14.01,2013-01-16 09:29:00,
2013-01-16 01:34:00,30.8,9.9,30.50,NNE,29,0.0,0.0,41,0.00,,CLR,0.00,VWS V14.01,2013-01-16 09:34:00,
2013-01-16 01:39:00,30.5,10.2,30.50,NNE,29,0.0,3.0,42,0.00,,CLR,0.00,VWS V14.01,2013-01-16 09:39:00,
2013-01-16 01:44:00,30.3,10.0,30.50,NNE,29,0.0,0.0,42,0.00,,CLR,0.00,VWS V14.01,2013-01-16 09:44:00,
2013-01-16 01:49:00,30.1,10.3,30.50,NNE,29,0.0,0.0,43,0.00,,CLR,0.00,VWS V14.01,2013-01-16 09:49:00,
2013-01-16 01:55:00,30.0,10.7,30.51,NNE,29,0.0,3.0,44,0.00,,CLR,0.00,VWS V14.01,2013-01-16 09:55:00,
2013-01-16 02:00:00,29.8,11.1,30.51,NNE,29,0.0,0.0,45,0.00,,CLR,0.00,VWS V14.01,2013-01-16 10:00:00,
2013-01-16 02:05:00,29.6,11.4,30.51,NNE,29,0.0,0.0,46,0.00,,CLR,0.00,VWS V14.01,2013-01-16 10:05:00,
2013-01-16 02:10:00,29.3,11.6,30.51,NNE,29,0.0,0.0,47,0.00,,CLR,0.00,VWS V14.01,2013-01-16 10:10:00,
2013-01-16 02:15:00,29.0,12.2,30.51,NNE,29,0.0,2.0,49,0.00,,CLR,0.00,VWS V14.01,2013-01-16 10:15:00,
2013-01-16 02:20:00,28.9,12.1,30.51,NNE,29,0.0,2.0,49,0.00,,CLR,0.00,VWS V14.01,2013-01-16 10:20:00,
2013-01-16 02:25:00,28.7,12.4,30.51,NNE,29,0.0,0.0,50,0.00,,CLR,0.00,VWS V14.01,2013-01-16 10:25:00,
2013-01-16 02:30:00,28.5,12.7,30.51,NNE,29,0.0,0.0,51,0.00,,CLR,0.00,VWS V14.01,2013-01-16 10:30:00,
2013-01-16 02:35:00,28.5,12.7,30.51,NNE,29,0.0,0.0,51,0.00,,CLR,0.00,VWS V14.01,2013-01-16 10:35:00,
2013-01-16 02:40:00,28.4,13.0,30.51,NNE,29,0.0,0.0,52,0.00,,CLR,0.00,VWS V14.01,2013-01-16 10:40:00,
2013-01-16 02:46:00,28.3,13.4,30.51,NNE,29,0.0,0.0,53,0.00,,CLR,0.00,VWS V14.01,2013-01-16 10:46:00,
2013-01-16 02:51:00,28.3,13.4,30.51,NNE,29,0.0,0.0,53,0.00,,CLR,0.00,VWS V14.01,2013-01-16 10:51:00,
2013-01-16 02:56:00,28.4,13.5,30.51,NNE,29,0.0,0.0,53,0.00,,CLR,0.00,VWS V14.01,2013-01-16 10:56:00,
2013-01-16 03:01:00,28.6,13.6,30.51,NNE,29,0.0,0.0,53,0.00,,CLR,0.00,VWS V14.01,2013-01-16 11:01:00,
2013-01-16 03:06:00,28.8,13.4,30.51,NNE,29,0.0,0.0,52,0.00,,CLR,0.00,VWS V14.01,2013-01-16 11:06:00,
2013-01-16 03:11:00,28.9,13.1,30.51,NNE,29,0.0,0.0,51,0.00,,CLR,0.00,VWS V14.01,2013-01-16 11:11:00,
2013-01-16 03:16:00,29.0,13.6,30.51,NNE,29,0.0,0.0,52,0.00,,CLR,0.00,VWS V14.01,2013-01-16 11:16:00,
2013-01-16 03:21:00,28.9,13.5,30.51,NNE,29,0.0,0.0,52,0.00,,CLR,0.00,VWS V14.01,2013-01-16 11:21:00,
2013-01-16 03:26:00,28.9,13.5,30.51,NNE,29,0.0,0.0,52,0.00,,CLR,0.00,VWS V14.01,2013-01-16 11:26:00,
2013-01-16 03:31:00,28.9,13.9,30.51,NNE,29,0.0,1.0,53,0.00,,CLR,0.00,VWS V14.01,2013-01-16 11:31:00,
2013-01-16 03:36:00,28.8,13.4,30.51,NNE,29,2.0,3.0,52,0.00,,CLR,0.00,VWS V14.01,2013-01-16 11:36:00,
2013-01-16 03:41:00,28.8,13.0,30.51,NNE,29,2.0,2.0,51,0.00,,CLR,0.00,VWS V14.01,2013-01-16 11:41:00,
2013-01-16 03:46:00,28.8,12.5,30.50,NNE,30,0.0,0.0,50,0.00,,CLR,0.00,VWS V14.01,2013-01-16 11:46:00,
2013-01-16 03:52:00,28.9,12.6,30.50,NNE,30,0.0,0.0,50,0.00,,CLR,0.00,VWS V14.01,2013-01-16 11:52:00,
2013-01-16 03:57:00,29.0,11.8,30.50,NNE,31,3.0,3.0,48,0.00,,CLR,0.00,VWS V14.01,2013-01-16 11:57:00,
2013-01-16 04:02:00,29.2,11.5,30.50,NNE,32,2.0,3.0,47,0.00,,CLR,0.00,VWS V14.01,2013-01-16 12:02:00,
2013-01-16 04:07:00,29.4,11.7,30.50,NNE,33,0.0,3.0,47,0.00,,CLR,0.00,VWS V14.01,2013-01-16 12:07:00,
2013-01-16 04:12:00,29.6,11.4,30.50,NNE,33,0.0,0.0,46,0.00,,CLR,0.00,VWS V14.01,2013-01-16 12:12:00,
2013-01-16 04:17:00,29.8,11.6,30.50,NNE,33,2.0,2.0,46,0.00,,CLR,0.00,VWS V14.01,2013-01-16 12:17:00,
2013-01-16 04:22:00,29.8,11.1,30.50,NNE,33,0.0,1.0,45,0.00,,CLR,0.00,VWS V14.01,2013-01-16 12:22:00,
2013-01-16 04:27:00,29.9,11.2,30.50,NE,34,2.0,2.0,45,0.00,,CLR,0.00,VWS V14.01,2013-01-16 12:27:00,
2013-01-16 04:32:00,30.0,10.7,30.50,NE,34,0.0,2.0,44,0.00,,CLR,0.00,VWS V14.01,2013-01-16 12:32:00,
2013-01-16 04:37:00,30.1,10.8,30.50,NE,36,0.0,2.0,44,0.00,,CLR,0.00,VWS V14.01,2013-01-16 12:37:00,
2013-01-16 04:42:00,30.3,11.0,30.49,NE,36,0.0,1.0,44,0.00,,CLR,0.00,VWS V14.01,2013-01-16 12:42:00,
2013-01-16 04:47:00,30.3,11.0,30.49,NE,36,0.0,1.0,44,0.00,,CLR,0.00,VWS V14.01,2013-01-16 12:47:00,
2013-01-16 04:52:00,30.3,11.0,30.49,NE,36,0.0,0.0,44,0.00,,CLR,0.00,VWS V14.01,2013-01-16 12:52:00,
2013-01-16 04:58:00,30.3,11.5,30.50,NE,36,0.0,0.0,45,0.00,,CLR,0.00,VWS V14.01,2013-01-16 12:58:00,
2013-01-16 05:03:00,30.3,11.0,30.50,NE,36,0.0,0.0,44,0.00,,CLR,0.00,VWS V14.01,2013-01-16 13:03:00,
2013-01-16 05:08:00,30.3,11.0,30.50,NE,38,0.0,2.0,44,0.00,,CLR,0.00,VWS V14.01,2013-01-16 13:08:00,
2013-01-16 05:13:00,30.5,10.7,30.50,NE,39,2.0,2.0,43,0.00,,CLR,0.00,VWS V14.01,2013-01-16 13:13:00,
2013-01-16 05:18:00,30.7,10.9,30.50,NE,40,0.0,2.0,43,0.00,,CLR,0.00,VWS V14.01,2013-01-16 13:18:00,
2013-01-16 05:23:00,30.7,10.9,30.50,NE,40,2.0,2.0,43,0.00,,CLR,0.00,VWS V14.01,2013-01-16 13:23:00,
2013-01-16 05:28:00,30.7,10.3,30.50,NE,40,1.0,4.0,42,0.00,,CLR,0.00,VWS V14.01,2013-01-16 13:28:00,
2013-01-16 05:33:00,30.8,10.4,30.50,NE,41,0.0,0.0,42,0.00,,CLR,0.00,VWS V14.01,2013-01-16 13:33:00,
2013-01-16 05:38:00,30.8,10.4,30.50,NE,41,1.0,1.0,42,0.00,,CLR,0.00,VWS V14.01,2013-01-16 13:38:00,
2013-01-16 05:43:00,30.8,10.4,30.50,NE,42,0.0,3.0,42,0.00,,CLR,0.00,VWS V14.01,2013-01-16 13:43:00,
2013-01-16 05:48:00,30.6,10.2,30.50,NE,42,0.0,1.0,42,0.00,,CLR,0.00,VWS V14.01,2013-01-16 13:48:00,
2013-01-16 05:53:00,30.5,10.2,30.50,NE,51,1.0,3.0,42,0.00,,CLR,0.00,VWS V14.01,2013-01-16 13:53:00,
2013-01-16 05:58:00,30.5,10.2,30.50,NE,52,0.0,0.0,42,0.00,,CLR,0.00,VWS V14.01,2013-01-16 13:58:00,
2013-01-16 06:03:00,30.5,10.2,30.50,NE,52,0.0,3.0,42,0.00,,CLR,0.00,VWS V14.01,2013-01-16 14:03:00,
2013-01-16 06:08:00,30.4,10.1,30.51,NE,52,1.0,1.0,42,0.00,,CLR,0.00,VWS V14.01,2013-01-16 14:08:00,
2013-01-16 06:14:00,30.4,10.1,30.51,NE,52,0.0,2.0,42,0.00,,CLR,0.00,VWS V14.01,2013-01-16 14:14:00,
2013-01-16 06:19:00,30.5,10.2,30.51,NE,52,0.0,0.0,42,0.00,,CLR,0.00,VWS V14.01,2013-01-16 14:19:00,
2013-01-16 06:24:00,30.5,10.2,30.51,NE,52,0.0,0.0,42,0.00,,CLR,0.00,VWS V14.01,2013-01-16 14:24:00,
2013-01-16 06:29:00,30.4,10.1,30.51,NE,52,0.0,0.0,42,0.00,,CLR,0.00,VWS V14.01,2013-01-16 14:29:00,
2013-01-16 06:34:00,30.3,10.5,30.51,NE,52,0.0,0.0,43,0.00,,CLR,0.00,VWS V14.01,2013-01-16 14:34:00,
2013-01-16 06:39:00,30.1,10.8,30.51,NE,52,0.0,0.0,44,0.00,,CLR,0.00,VWS V14.01,2013-01-16 14:39:00,
2013-01-16 06:44:00,29.8,10.6,30.51,NE,52,0.0,0.0,44,0.00,,CLR,0.00,VWS V14.01,2013-01-16 14:44:00,
2013-01-16 06:49:00,29.7,10.5,30.51,NE,52,0.0,0.0,44,0.00,,CLR,0.00,VWS V14.01,2013-01-16 14:49:00,
2013-01-16 06:54:00,29.7,10.5,30.51,NE,52,0.0,0.0,44,0.00,,CLR,0.00,VWS V14.01,2013-01-16 14:54:00,
2013-01-16 06:59:00,29.6,10.9,30.51,NE,52,0.0,0.0,45,0.00,,CLR,0.00,VWS V14.01,2013-01-16 14:59:00,
2013-01-16 07:04:00,29.5,10.8,30.51,NE,52,0.0,0.0,45,0.00,,CLR,0.00,VWS V14.01,2013-01-16 15:04:00,
2013-01-16 07:09:00,29.3,11.1,30.52,NE,52,0.0,0.0,46,0.00,,CLR,0.00,VWS V14.01,2013-01-16 15:09:00,
2013-01-16 07:14:00,29.0,11.3,30.51,NE,52,0.0,0.0,47,0.00,,CLR,0.00,VWS V14.01,2013-01-16 15:14:00,
2013-01-16 07:19:00,28.8,11.1,30.51,NE,52,0.0,0.0,47,0.00,,CLR,0.00,VWS V14.01,2013-01-16 15:19:00,
2013-01-16 07:25:00,28.6,11.4,30.52,NE,52,0.0,0.0,48,0.00,,CLR,0.00,VWS V14.01,2013-01-16 15:25:00,
2013-01-16 07:30:00,28.5,11.3,30.52,NE,52,0.0,2.0,48,0.00,,CLR,0.00,VWS V14.01,2013-01-16 15:30:00,
2013-01-16 07:35:00,28.5,11.3,30.53,NE,52,0.0,3.0,48,0.00,,CLR,0.00,VWS V14.01,2013-01-16 15:35:00,
2013-01-16 07:40:00,28.6,11.4,30.52,NE,52,0.0,1.0,48,0.00,,CLR,0.00,VWS V14.01,2013-01-16 15:40:00,
2013-01-16 07:45:00,29.1,11.9,30.52,NE,52,0.0,3.0,48,0.00,,CLR,0.00,VWS V14.01,2013-01-16 15:45:00,
2013-01-16 07:50:00,29.6,12.3,30.53,NE,52,0.0,0.0,48,0.00,,CLR,0.00,VWS V14.01,2013-01-16 15:50:00,
2013-01-16 07:55:00,30.0,12.2,30.53,NE,52,0.0,0.0,47,0.00,,CLR,0.00,VWS V14.01,2013-01-16 15:55:00,
2013-01-16 08:00:00,30.5,13.6,30.52,NE,52,0.0,0.0,49,0.00,,CLR,0.00,VWS V14.01,2013-01-16 16:00:00,
2013-01-16 08:05:00,30.9,13.5,30.53,NE,52,0.0,0.0,48,0.00,,CLR,0.00,VWS V14.01,2013-01-16 16:05:00,
2013-01-16 08:10:00,31.3,12.9,30.53,NE,52,0.0,0.0,46,0.00,,CLR,0.00,VWS V14.01,2013-01-16 16:10:00,
2013-01-16 08:15:00,31.7,13.8,30.53,NE,52,0.0,0.0,47,0.00,,CLR,0.00,VWS V14.01,2013-01-16 16:15:00,
2013-01-16 08:20:00,32.3,13.9,30.53,NE,52,0.0,0.0,46,0.00,,CLR,0.00,VWS V14.01,2013-01-16 16:20:00,
2013-01-16 08:25:00,32.9,12.9,30.53,NE,52,0.0,0.0,43,0.00,,CLR,0.00,VWS V14.01,2013-01-16 16:25:00,
2013-01-16 08:30:00,33.8,12.1,30.53,NE,52,0.0,0.0,40,0.00,,CLR,0.00,VWS V14.01,2013-01-16 16:30:00,
2013-01-16 08:35:00,34.8,12.4,30.53,NE,52,0.0,0.0,39,0.00,,CLR,0.00,VWS V14.01,2013-01-16 16:35:00,
2013-01-16 08:41:00,35.9,12.2,30.53,NE,52,0.0,0.0,37,0.00,,CLR,0.00,VWS V14.01,2013-01-16 16:41:00,
2013-01-16 08:46:00,37.1,12.6,30.53,NE,52,0.0,3.0,36,0.00,,CLR,0.00,VWS V14.01,2013-01-16 16:46:00,
2013-01-16 08:51:00,38.2,12.3,30.53,NE,52,0.0,2.0,34,0.00,,CLR,0.00,VWS V14.01,2013-01-16 16:51:00,
2013-01-16 08:56:00,39.1,12.4,30.53,NE,52,0.0,0.0,33,0.00,,CLR,0.00,VWS V14.01,2013-01-16 16:56:00,
2013-01-16 09:01:00,39.9,13.1,30.53,NE,52,2.0,3.0,33,0.00,,CLR,0.00,VWS V14.01,2013-01-16 17:01:00,
2013-01-16 09:06:00,40.7,13.1,30.53,NE,52,0.0,0.0,32,0.00,,CLR,0.00,VWS V14.01,2013-01-16 17:06:00,
2013-01-16 09:11:00,41.5,13.1,30.53,NE,52,0.0,0.0,31,0.00,,CLR,0.00,VWS V14.01,2013-01-16 17:11:00,
2013-01-16 09:16:00,42.2,13.0,30.53,NE,52,0.0,0.0,30,0.00,,CLR,0.00,VWS V14.01,2013-01-16 17:16:00,
2013-01-16 09:21:00,42.8,13.5,30.53,NE,52,1.0,1.0,30,0.00,,CLR,0.00,VWS V14.01,2013-01-16 17:21:00,
2013-01-16 09:26:00,43.3,13.2,30.53,ENE,57,3.0,4.0,29,0.00,,CLR,0.00,VWS V14.01,2013-01-16 17:26:00,
2013-01-16 09:31:00,43.6,13.5,30.52,ENE,58,4.0,4.0,29,0.00,,CLR,0.00,VWS V14.01,2013-01-16 17:31:00,
2013-01-16 09:36:00,43.8,13.6,30.52,ENE,58,3.0,3.0,29,0.00,,CLR,0.00,VWS V14.01,2013-01-16 17:36:00,
2013-01-16 09:41:00,44.0,13.0,30.52,ENE,58,4.0,4.0,28,0.00,,CLR,0.00,VWS V14.01,2013-01-16 17:41:00,
2013-01-16 09:46:00,44.2,14.0,30.51,ENE,58,2.0,4.0,29,0.00,,CLR,0.00,VWS V14.01,2013-01-16 17:46:00,
2013-01-16 09:51:00,44.3,13.3,30.52,ENE,59,3.0,4.0,28,0.00,,CLR,0.00,VWS V14.01,2013-01-16 17:51:00,
2013-01-16 09:56:00,44.4,14.1,30.51,ENE,60,0.0,2.0,29,0.00,,CLR,0.00,VWS V14.01,2013-01-16 17:56:00,
2013-01-16 10:02:00,44.6,13.5,30.51,ENE,60,0.0,3.0,28,0.00,,CLR,0.00,VWS V14.01,2013-01-16 18:02:00,
2013-01-16 10:07:00,44.9,13.8,30.51,ENE,60,3.0,3.0,28,0.00,,CLR,0.00,VWS V14.01,2013-01-16 18:07:00,
2013-01-16 10:12:00,45.2,14.1,30.51,ENE,60,3.0,4.0,28,0.00,,CLR,0.00,VWS V14.01,2013-01-16 18:12:00,
2013-01-16 10:17:00,45.4,14.2,30.51,NE,36,4.0,6.0,28,0.00,,CLR,0.00,VWS V14.01,2013-01-16 18:17:00,
2013-01-16 10:22:00,45.7,14.5,30.51,NE,36,3.0,5.0,28,0.00,,CLR,0.00,VWS V14.01,2013-01-16 18:22:00,
2013-01-16 10:27:00,46.0,13.9,30.50,NE,36,0.0,3.0,27,0.00,,CLR,0.00,VWS V14.01,2013-01-16 18:27:00,
2013-01-16 10:32:00,46.0,13.9,30.50,NE,36,3.0,6.0,27,0.00,,CLR,0.00,VWS V14.01,2013-01-16 18:32:00,
2013-01-16 10:37:00,46.4,14.2,30.50,NE,36,0.0,2.0,27,0.00,,CLR,0.00,VWS V14.01,2013-01-16 18:37:00,
2013-01-16 10:42:00,46.9,14.7,30.50,NNE,32,5.0,7.0,27,0.00,,CLR,0.00,VWS V14.01,2013-01-16 18:42:00,
2013-01-16 10:47:00,47.2,14.9,30.49,NNE,30,6.0,6.0,27,0.00,,CLR,0.00,VWS V14.01,2013-01-16 18:47:00,
2013-01-16 10:52:00,47.5,15.2,30.49,NNE,27,0.0,8.0,27,0.00,,CLR,0.00,VWS V14.01,2013-01-16 18:52:00,
2013-01-16 10:57:00,47.8,14.6,30.49,NNE,22,3.0,8.0,26,0.00,,CLR,0.00,VWS V14.01,2013-01-16 18:57:00,
2013-01-16 11:03:00,48.1,15.7,30.48,NNE,22,0.0,5.0,27,0.00,,,0.00,VWS V14.01,2013-01-16 19:03:00,
2013-01-16 11:08:00,48.5,16.1,30.48,NNE,19,4.0,6.0,27,0.00,,,0.00,VWS V14.01,2013-01-16 19:08:00,
2013-01-16 11:13:00,48.9,16.4,30.48,NNE,22,0.0,7.0,27,0.00,,,0.00,VWS V14.01,2013-01-16 19:13:00,
2013-01-16 11:18:00,49.5,16.9,30.47,NNE,17,3.0,7.0,27,0.00,,,0.00,VWS V14.01,2013-01-16 19:18:00,
2013-01-16 11:23:00,49.9,17.3,30.46,NNE,17,5.0,5.0,27,0.00,,,0.00,VWS V14.01,2013-01-16 19:23:00,
2013-01-16 11:28:00,50.4,17.7,30.45,NNE,28,0.0,5.0,27,0.00,,,0.00,VWS V14.01,2013-01-16 19:28:00,
2013-01-16 11:33:00,50.7,18.8,30.45,NNE,15,10.0,10.0,28,0.00,,,0.00,VWS V14.01,2013-01-16 19:33:00,
2013-01-16 11:38:00,51.2,19.2,30.45,ENE,63,6.0,10.0,28,0.00,,,0.00,VWS V14.01,2013-01-16 19:38:00,
2013-01-16 11:43:00,51.6,19.6,30.45,NE,54,3.0,10.0,28,0.00,,,0.00,VWS V14.01,2013-01-16 19:43:00,
2013-01-16 11:48:00,52.1,19.2,30.44,NNE,20,3.0,9.0,27,0.00,,,0.00,VWS V14.01,2013-01-16 19:48:00,
2013-01-16 11:53:00,52.6,19.6,30.44,NE,55,6.0,9.0,27,0.00,,,0.00,VWS V14.01,2013-01-16 19:53:00,
2013-01-16 11:58:00,52.9,19.9,30.44,NE,36,6.0,8.0,27,0.00,,,0.00,VWS V14.01,2013-01-16 19:58:00,
2013-01-16 12:03:00,53.3,20.2,30.43,NE,46,6.0,10.0,27,0.00,,CLR,0.00,VWS V14.01,2013-01-16 20:03:00,
2013-01-16 12:08:00,53.4,20.3,30.43,East,82,4.0,8.0,27,0.00,,CLR,0.00,VWS V14.01,2013-01-16 20:08:00,
2013-01-16 12:13:00,53.4,20.3,30.42,NE,47,7.0,9.0,27,0.00,,CLR,0.00,VWS V14.01,2013-01-16 20:13:00,
2013-01-16 12:19:00,53.6,20.5,30.42,NNE,28,8.0,8.0,27,0.00,,CLR,0.00,VWS V14.01,2013-01-16 20:19:00,
2013-01-16 12:24:00,53.9,20.7,30.41,NE,35,4.0,12.0,27,0.00,,CLR,0.00,VWS V14.01,2013-01-16 20:24:00,
2013-01-16 12:29:00,54.0,20.8,30.41,NE,34,3.0,10.0,27,0.00,,CLR,0.00,VWS V14.01,2013-01-16 20:29:00,
2013-01-16 12:34:00,54.2,20.1,30.41,NNE,24,4.0,8.0,26,0.00,,CLR,0.00,VWS V14.01,2013-01-16 20:34:00,
2013-01-16 12:39:00,54.5,20.3,30.40,NE,44,1.0,11.0,26,0.00,,CLR,0.00,VWS V14.01,2013-01-16 20:39:00,
2013-01-16 12:44:00,54.8,20.6,30.40,NNE,31,7.0,11.0,26,0.00,,CLR,0.00,VWS V14.01,2013-01-16 20:44:00,
2013-01-16 12:49:00,55.1,20.9,30.40,ENE,77,7.0,8.0,26,0.00,,CLR,0.00,VWS V14.01,2013-01-16 20:49:00,
2013-01-16 12:54:00,55.4,21.1,30.39,NE,51,4.0,11.0,26,0.00,,CLR,0.00,VWS V14.01,2013-01-16 20:54:00,
2013-01-16 12:59:00,55.7,21.4,30.39,ENE,63,6.0,16.0,26,0.00,,CLR,0.00,VWS V14.01,2013-01-16 20:59:00,
2013-01-16 13:04:00,56.0,21.6,30.39,NE,51,6.0,13.0,26,0.00,,CLR,0.00,VWS V14.01,2013-01-16 21:04:00,
2013-01-16 13:09:00,56.3,21.9,30.38,NNE,32,11.0,14.0,26,0.00,,CLR,0.00,VWS V14.01,2013-01-16 21:09:00,
2013-01-16 13:14:00,56.6,21.2,30.38,ENE,58,7.0,11.0,25,0.00,,CLR,0.00,VWS V14.01,2013-01-16 21:14:00,
2013-01-16 13:19:00,56.9,21.5,30.37,NE,39,7.0,16.0,25,0.00,,CLR,0.00,VWS V14.01,2013-01-16 21:19:00,
2013-01-16 13:24:00,57.1,21.6,30.37,NE,45,8.0,12.0,25,0.00,,CLR,0.00,VWS V14.01,2013-01-16 21:24:00,
2013-01-16 13:30:00,57.2,21.7,30.37,NE,55,10.0,12.0,25,0.00,,CLR,0.00,VWS V14.01,2013-01-16 21:30:00,
2013-01-16 13:35:00,57.1,21.6,30.37,ENE,65,7.0,10.0,25,0.00,,CLR,0.00,VWS V14.01,2013-01-16 21:35:00,
2013-01-16 13:40:00,57.1,20.7,30.37,ENE,57,10.0,11.0,24,0.00,,CLR,0.00,VWS V14.01,2013-01-16 21:40:00,
2013-01-16 13:45:00,57.1,20.7,30.37,ENE,71,11.0,11.0,24,0.00,,CLR,0.00,VWS V14.01,2013-01-16 21:45:00,
2013-01-16 13:50:00,57.1,21.6,30.37,East,94,12.0,12.0,25,0.00,,CLR,0.00,VWS V14.01,2013-01-16 21:50:00,
2013-01-16 13:55:00,57.1,21.6,30.37,NE,34,7.0,7.0,25,0.00,,CLR,0.00,VWS V14.01,2013-01-16 21:55:00,
2013-01-16 14:00:00,57.1,21.6,30.36,East,81,6.0,7.0,25,0.00,,CLR,0.00,VWS V14.01,2013-01-16 22:00:00,
2013-01-16 14:05:00,57.2,20.8,30.36,NE,38,7.0,10.0,24,0.00,,CLR,0.00,VWS V14.01,2013-01-16 22:05:00,
2013-01-16 14:10:00,57.2,20.8,30.36,ENE,65,5.0,6.0,24,0.00,,CLR,0.00,VWS V14.01,2013-01-16 22:10:00,
2013-01-16 14:15:00,57.3,20.8,30.36,ENE,67,11.0,11.0,24,0.00,,CLR,0.00,VWS V14.01,2013-01-16 22:15:00,
2013-01-16 14:21:00,57.4,20.9,30.36,NE,45,4.0,6.0,24,0.00,,CLR,0.00,VWS V14.01,2013-01-16 22:21:00,
2013-01-16 14:26:00,57.4,20.9,30.36,NE,56,6.0,10.0,24,0.00,,CLR,0.00,VWS V14.01,2013-01-16 22:26:00,
2013-01-16 14:31:00,57.3,20.8,30.36,NE,53,6.0,11.0,24,0.00,,CLR,0.00,VWS V14.01,2013-01-16 22:31:00,
2013-01-16 14:36:00,57.3,20.8,30.36,East,87,7.0,8.0,24,0.00,,CLR,0.00,VWS V14.01,2013-01-16 22:36:00,
2013-01-16 14:41:00,57.3,20.8,30.35,NE,50,3.0,10.0,24,0.00,,CLR,0.00,VWS V14.01,2013-01-16 22:41:00,
2013-01-16 14:46:00,57.2,20.8,30.35,NE,48,3.0,8.0,24,0.00,,CLR,0.00,VWS V14.01,2013-01-16 22:46:00,
2013-01-16 14:51:00,57.1,20.7,30.36,ENE,67,5.0,8.0,24,0.00,,CLR,0.00,VWS V14.01,2013-01-16 22:51:00,
2013-01-16 14:56:00,57.0,21.5,30.35,ENE,77,10.0,12.0,25,0.00,,CLR,0.00,VWS V14.01,2013-01-16 22:56:00,
2013-01-16 15:01:00,56.9,21.5,30.35,NE,50,4.0,6.0,25,0.00,,CLR,0.00,VWS V14.01,2013-01-16 23:01:00,
2013-01-16 15:06:00,56.9,21.5,30.35,NE,49,4.0,7.0,25,0.00,,CLR,0.00,VWS V14.01,2013-01-16 23:06:00,
2013-01-16 15:11:00,57.0,20.6,30.35,NE,44,4.0,9.0,24,0.00,,CLR,0.00,VWS V14.01,2013-01-16 23:11:00,
2013-01-16 15:16:00,57.1,20.7,30.35,ENE,69,8.0,11.0,24,0.00,,CLR,0.00,VWS V14.01,2013-01-16 23:16:00,
2013-01-16 15:21:00,57.1,20.7,30.35,NE,40,7.0,12.0,24,0.00,,CLR,0.00,VWS V14.01,2013-01-16 23:21:00,
2013-01-16 15:26:00,57.1,20.7,30.35,NE,46,7.0,11.0,24,0.00,,CLR,0.00,VWS V14.01,2013-01-16 23:26:00,
2013-01-16 15:32:00,57.0,20.6,30.35,NNE,21,5.0,6.0,24,0.00,,CLR,0.00,VWS V14.01,2013-01-16 23:32:00,
2013-01-16 15:37:00,57.0,20.6,30.35,NE,52,6.0,8.0,24,0.00,,CLR,0.00,VWS V14.01,2013-01-16 23:37:00,
2013-01-16 15:42:00,56.9,20.5,30.35,NE,53,7.0,10.0,24,0.00,,CLR,0.00,VWS V14.01,2013-01-16 23:42:00,
2013-01-16 15:47:00,56.8,20.4,30.36,ENE,67,4.0,6.0,24,0.00,,CLR,0.00,VWS V14.01,2013-01-16 23:47:00,
2013-01-16 15:52:00,56.7,20.3,30.35,NE,54,5.0,8.0,24,0.00,,CLR,0.00,VWS V14.01,2013-01-16 23:52:00,
2013-01-16 15:57:00,56.6,20.2,30.36,NNE,27,7.0,9.0,24,0.00,,CLR,0.00,VWS V14.01,2013-01-16 23:57:00,
2013-01-16 16:02:00,56.5,20.2,30.36,NNE,18,2.0,6.0,24,0.00,,CLR,0.00,VWS V14.01,2013-01-17 00:02:00,
2013-01-16 16:07:00,56.5,20.2,30.36,NE,38,4.0,11.0,24,0.00,,CLR,0.00,VWS V14.01,2013-01-17 00:07:00,
2013-01-16 16:12:00,56.4,20.1,30.35,NE,56,7.0,11.0,24,0.00,,CLR,0.00,VWS V14.01,2013-01-17 00:12:00,
2013-01-16 16:17:00,56.3,20.0,30.36,NE,47,3.0,11.0,24,0.00,,CLR,0.00,VWS V14.01,2013-01-17 00:17:00,
2013-01-16 16:22:00,56.1,19.8,30.36,NE,47,3.0,10.0,24,0.00,,CLR,0.00,VWS V14.01,2013-01-17 00:22:00,
2013-01-16 16:27:00,56.0,19.7,30.36,NE,46,7.0,7.0,24,0.00,,CLR,0.00,VWS V14.01,2013-01-17 00:27:00,
2013-01-16 16:32:00,55.7,19.5,30.36,NE,42,4.0,8.0,24,0.00,,CLR,0.00,VWS V14.01,2013-01-17 00:32:00,
2013-01-16 16:37:00,55.5,20.3,30.36,NE,38,4.0,5.0,25,0.00,,CLR,0.00,VWS V14.01,2013-01-17 00:37:00,
2013-01-16 16:43:00,55.2,20.0,30.36,NE,38,2.0,5.0,25,0.00,,CLR,0.00,VWS V14.01,2013-01-17 00:43:00,
2013-01-16 16:48:00,54.8,20.6,30.36,NE,38,1.0,6.0,26,0.00,,CLR,0.00,VWS V14.01,2013-01-17 00:48:00,
2013-01-16 16:53:00,54.4,20.2,30.36,NE,38,2.0,5.0,26,0.00,,CLR,0.00,VWS V14.01,2013-01-17 00:53:00,
2013-01-16 16:58:00,54.0,20.8,30.36,NE,38,2.0,5.0,27,0.00,,CLR,0.00,VWS V14.01,2013-01-17 00:58:00,
2013-01-16 17:03:00,53.5,20.4,30.36,NE,38,1.0,5.0,27,0.00,,CLR,0.00,VWS V14.01,2013-01-17 01:03:00,
2013-01-16 17:08:00,53.1,20.0,30.36,NE,38,0.0,3.0,27,0.00,,CLR,0.00,VWS V14.01,2013-01-17 01:08:00,
2013-01-16 17:13:00,52.7,20.5,30.36,NE,38,0.0,0.0,28,0.00,,CLR,0.00,VWS V14.01,2013-01-17 01:13:00,
2013-01-16 17:18:00,52.3,20.2,30.36,NE,38,0.0,0.0,28,0.00,,CLR,0.00,VWS V14.01,2013-01-17 01:18:00,
2013-01-16 17:23:00,51.7,20.5,30.36,NE,38,0.0,0.0,29,0.00,,CLR,0.00,VWS V14.01,2013-01-17 01:23:00,
2013-01-16 17:28:00,51.2,20.0,30.36,NE,38,0.0,0.0,29,0.00,,CLR,0.00,VWS V14.01,2013-01-17 01:28:00,
2013-01-16 17:33:00,50.6,20.3,30.36,NE,38,0.0,0.0,30,0.00,,CLR,0.00,VWS V14.01,2013-01-17 01:33:00,
2013-01-16 17:38:00,50.2,20.8,30.36,NE,38,0.0,0.0,31,0.00,,CLR,0.00,VWS V14.01,2013-01-17 01:38:00,
2013-01-16 17:43:00,49.6,21.0,30.37,NE,38,0.0,0.0,32,0.00,,CLR,0.00,VWS V14.01,2013-01-17 01:43:00,
2013-01-16 17:48:00,49.0,20.4,30.36,NE,38,0.0,0.0,32,0.00,,CLR,0.00,VWS V14.01,2013-01-17 01:48:00,
2013-01-16 17:53:00,48.3,20.5,30.36,NE,38,0.0,0.0,33,0.00,,CLR,0.00,VWS V14.01,2013-01-17 01:53:00,
2013-01-16 17:58:00,47.6,20.6,30.36,NE,38,0.0,1.0,34,0.00,,CLR,0.00,VWS V14.01,2013-01-17 01:58:00,
2013-01-16 18:04:00,46.9,20.7,30.37,NE,38,0.0,1.0,35,0.00,,CLR,0.00,VWS V14.01,2013-01-17 02:04:00,
2013-01-16 18:09:00,46.3,20.8,30.37,NE,38,0.0,0.0,36,0.00,,CLR,0.00,VWS V14.01,2013-01-17 02:09:00,
2013-01-16 18:14:00,45.8,20.4,30.37,NE,38,0.0,0.0,36,0.00,,CLR,0.00,VWS V14.01,2013-01-17 02:14:00,
2013-01-16 18:19:00,45.2,20.5,30.37,NE,38,0.0,0.0,37,0.00,,CLR,0.00,VWS V14.01,2013-01-17 02:19:00,
2013-01-16 18:24:00,44.8,20.8,30.37,NE,38,0.0,0.0,38,0.00,,CLR,0.00,VWS V14.01,2013-01-17 02:24:00,
2013-01-16 18:29:00,44.3,20.3,30.37,NE,38,0.0,1.0,38,0.00,,CLR,0.00,VWS V14.01,2013-01-17 02:29:00,
2013-01-16 18:34:00,43.9,20.6,30.38,NE,38,0.0,2.0,39,0.00,,CLR,0.00,VWS V14.01,2013-01-17 02:34:00,
2013-01-16 18:39:00,43.6,20.3,30.38,NE,38,0.0,2.0,39,0.00,,CLR,0.00,VWS V14.01,2013-01-17 02:39:00,
2013-01-16 18:44:00,43.6,20.3,30.38,NE,38,0.0,2.0,39,0.00,,CLR,0.00,VWS V14.01,2013-01-17 02:44:00,
2013-01-16 18:49:00,43.3,20.0,30.38,NE,38,0.0,0.0,39,0.00,,CLR,0.00,VWS V14.01,2013-01-17 02:49:00,
2013-01-16 18:54:00,43.0,20.4,30.38,NE,38,1.0,1.0,40,0.00,,CLR,0.00,VWS V14.01,2013-01-17 02:54:00,
2013-01-16 18:59:00,42.7,20.1,30.38,NE,38,0.0,0.0,40,0.00,,CLR,0.00,VWS V14.01,2013-01-17 02:59:00,
2013-01-16 19:04:00,42.4,20.4,30.37,NE,38,0.0,0.0,41,0.00,,CLR,0.00,VWS V14.01,2013-01-17 03:04:00,
2013-01-16 19:10:00,42.1,20.7,30.38,NE,38,0.0,0.0,42,0.00,,CLR,0.00,VWS V14.01,2013-01-17 03:10:00,
2013-01-16 19:15:00,41.9,20.5,30.38,NE,38,0.0,0.0,42,0.00,,CLR,0.00,VWS V14.01,2013-01-17 03:15:00,
2013-01-16 19:20:00,41.7,20.3,30.38,NE,38,0.0,0.0,42,0.00,,CLR,0.00,VWS V14.01,2013-01-17 03:20:00,
2013-01-16 19:25:00,41.5,20.7,30.38,NE,38,0.0,0.0,43,0.00,,CLR,0.00,VWS V14.01,2013-01-17 03:25:00,
2013-01-16 19:30:00,41.3,20.5,30.37,NE,38,0.0,0.0,43,0.00,,CLR,0.00,VWS V14.01,2013-01-17 03:30:00,
2013-01-16 19:35:00,41.0,20.2,30.37,NE,38,0.0,0.0,43,0.00,,CLR,0.00,VWS V14.01,2013-01-17 03:35:00,
2013-01-16 19:40:00,40.7,20.5,30.37,NE,38,0.0,0.0,44,0.00,,CLR,0.00,VWS V14.01,2013-01-17 03:40:00,
2013-01-16 19:45:00,40.4,20.2,30.37,NE,38,0.0,0.0,44,0.00,,CLR,0.00,VWS V14.01,2013-01-17 03:45:00,
2013-01-16 19:50:00,40.0,20.4,30.38,NE,38,0.0,0.0,45,0.00,,CLR,0.00,VWS V14.01,2013-01-17 03:50:00,
2013-01-16 19:55:00,39.7,20.1,30.37,NE,38,0.0,0.0,45,0.00,,CLR,0.00,VWS V14.01,2013-01-17 03:55:00,
2013-01-16 20:00:00,39.3,20.3,30.38,NE,38,0.0,0.0,46,0.00,,CLR,0.00,VWS V14.01,2013-01-17 04:00:00,
2013-01-16 20:05:00,39.1,20.6,30.38,NE,38,0.0,0.0,47,0.00,,CLR,0.00,VWS V14.01,2013-01-17 04:05:00,
2013-01-16 20:10:00,38.8,20.3,30.38,NE,38,0.0,0.0,47,0.00,,CLR,0.00,VWS V14.01,2013-01-17 04:10:00,
2013-01-16 20:16:00,38.6,20.6,30.38,NE,38,0.0,0.0,48,0.00,,CLR,0.00,VWS V14.01,2013-01-17 04:16:00,
2013-01-16 20:21:00,38.4,20.4,30.38,NE,38,0.0,0.0,48,0.00,,CLR,0.00,VWS V14.01,2013-01-17 04:21:00,
2013-01-16 20:26:00,38.2,20.2,30.38,NE,38,0.0,0.0,48,0.00,,CLR,0.00,VWS V14.01,2013-01-17 04:26:00,
2013-01-16 20:31:00,38.0,20.1,30.38,NE,38,0.0,0.0,48,0.00,,CLR,0.00,VWS V14.01,2013-01-17 04:31:00,
2013-01-16 20:36:00,37.8,20.4,30.38,NE,38,0.0,0.0,49,0.00,,CLR,0.00,VWS V14.01,2013-01-17 04:36:00,
2013-01-16 20:41:00,37.7,20.3,30.38,NE,38,0.0,2.0,49,0.00,,CLR,0.00,VWS V14.01,2013-01-17 04:41:00,
2013-01-16 20:46:00,37.7,20.3,30.38,NE,38,0.0,3.0,49,0.00,,CLR,0.00,VWS V14.01,2013-01-17 04:46:00,
2013-01-16 20:51:00,37.5,20.1,30.38,NE,38,0.0,0.0,49,0.00,,CLR,0.00,VWS V14.01,2013-01-17 04:51:00,
2013-01-16 20:56:00,37.5,20.1,30.37,NE,38,0.0,0.0,49,0.00,,CLR,0.00,VWS V14.01,2013-01-17 04:56:00,
2013-01-16 21:01:00,37.4,20.0,30.37,NE,38,0.0,0.0,49,0.00,,CLR,0.00,VWS V14.01,2013-01-17 05:01:00,
2013-01-16 21:03:00,37.3,19.9,30.37,NE,38,0.0,0.0,49,0.00,,CLR,0.00,VWS V14.01,2013-01-17 05:03:00,
2013-01-16 21:05:00,37.3,19.9,30.37,NE,38,0.0,0.0,49,0.00,,CLR,0.00,VWS V14.01,2013-01-17 05:05:00,
2013-01-16 21:06:00,37.3,19.9,30.37,NE,38,0.0,0.0,49,0.00,,CLR,0.00,VWS V14.01,2013-01-17 05:06:00,
2013-01-16 21:11:00,37.0,20.1,30.37,NE,38,0.0,0.0,50,0.00,,CLR,0.00,VWS V14.01,2013-01-17 05:11:00,
2013-01-16 21:16:00,36.8,19.5,30.37,NE,38,0.0,0.0,49,0.00,,CLR,0.00,VWS V14.01,2013-01-17 05:16:00,
2013-01-16 21:21:00,36.6,19.7,30.37,NE,38,0.0,0.0,50,0.00,,CLR,0.00,VWS V14.01,2013-01-17 05:21:00,
2013-01-16 21:26:00,36.4,19.5,30.37,NE,38,0.0,0.0,50,0.00,,CLR,0.00,VWS V14.01,2013-01-17 05:26:00,
2013-01-16 21:31:00,36.2,19.8,30.37,NE,38,0.0,0.0,51,0.00,,CLR,0.00,VWS V14.01,2013-01-17 05:31:00,
2013-01-16 21:36:00,36.0,19.6,30.37,NE,38,0.0,0.0,51,0.00,,CLR,0.00,VWS V14.01,2013-01-17 05:36:00,
2013-01-16 21:41:00,35.7,19.4,30.37,NE,38,0.0,0.0,51,0.00,,CLR,0.00,VWS V14.01,2013-01-17 05:41:00,
2013-01-16 21:46:00,35.5,19.6,30.37,NE,38,0.0,0.0,52,0.00,,CLR,0.00,VWS V14.01,2013-01-17 05:46:00,
2013-01-16 21:51:00,35.2,19.4,30.37,NE,38,0.0,0.0,52,0.00,,CLR,0.00,VWS V14.01,2013-01-17 05:51:00,
2013-01-16 21:56:00,35.1,19.7,30.37,NE,38,0.0,0.0,53,0.00,,CLR,0.00,VWS V14.01,2013-01-17 05:56:00,
2013-01-16 22:01:00,34.9,19.5,30.37,NE,38,0.0,0.0,53,0.00,,CLR,0.00,VWS V14.01,2013-01-17 06:01:00,
2013-01-16 22:06:00,34.7,19.3,30.37,NE,38,0.0,0.0,53,0.00,,CLR,0.00,VWS V14.01,2013-01-17 06:06:00,
2013-01-16 22:11:00,34.6,19.7,30.37,NE,38,0.0,0.0,54,0.00,,CLR,0.00,VWS V14.01,2013-01-17 06:11:00,
2013-01-16 22:16:00,34.4,19.5,30.37,NE,38,0.0,0.0,54,0.00,,CLR,0.00,VWS V14.01,2013-01-17 06:16:00,
2013-01-16 22:22:00,34.2,19.3,30.37,NE,38,0.0,0.0,54,0.00,,CLR,0.00,VWS V14.01,2013-01-17 06:22:00,
2013-01-16 22:27:00,34.1,19.6,30.37,NE,38,0.0,0.0,55,0.00,,CLR,0.00,VWS V14.01,2013-01-17 06:27:00,
2013-01-16 22:32:00,33.8,19.4,30.37,NE,38,0.0,0.0,55,0.00,,CLR,0.00,VWS V14.01,2013-01-17 06:32:00,
2013-01-16 22:37:00,33.7,19.7,30.37,NE,38,0.0,0.0,56,0.00,,CLR,0.00,VWS V14.01,2013-01-17 06:37:00,
2013-01-16 22:42:00,33.5,19.5,30.36,NE,38,0.0,0.0,56,0.00,,CLR,0.00,VWS V14.01,2013-01-17 06:42:00,
2013-01-16 22:47:00,33.5,19.5,30.36,NE,38,0.0,0.0,56,0.00,,CLR,0.00,VWS V14.01,2013-01-17 06:47:00,
2013-01-16 22:52:00,33.3,19.3,30.36,NE,38,1.0,2.0,56,0.00,,CLR,0.00,VWS V14.01,2013-01-17 06:52:00,
2013-01-16 22:57:00,33.2,19.2,30.36,NE,38,0.0,0.0,56,0.00,,CLR,0.00,VWS V14.01,2013-01-17 06:57:00,
2013-01-16 23:02:00,33.2,19.6,30.37,NE,38,0.0,1.0,57,0.00,,CLR,0.00,VWS V14.01,2013-01-17 07:02:00,
2013-01-16 23:07:00,33.4,19.4,30.37,NE,38,0.0,0.0,56,0.00,,CLR,0.00,VWS V14.01,2013-01-17 07:07:00,
2013-01-16 23:12:00,33.4,19.4,30.37,NE,38,0.0,1.0,56,0.00,,CLR,0.00,VWS V14.01,2013-01-17 07:12:00,
2013-01-16 23:17:00,33.3,19.3,30.37,NE,38,0.0,0.0,56,0.00,,CLR,0.00,VWS V14.01,2013-01-17 07:17:00,
2013-01-16 23:22:00,33.2,19.2,30.37,NE,38,0.0,0.0,56,0.00,,CLR,0.00,VWS V14.01,2013-01-17 07:22:00,
2013-01-16 23:28:00,33.0,18.6,30.37,NE,38,0.0,4.0,55,0.00,,CLR,0.00,VWS V14.01,2013-01-17 07:28:00,
2013-01-16 23:33:00,32.8,18.8,30.37,NE,38,0.0,0.0,56,0.00,,CLR,0.00,VWS V14.01,2013-01-17 07:33:00,
2013-01-16 23:38:00,32.8,18.8,30.37,NE,38,0.0,0.0,56,0.00,,CLR,0.00,VWS V14.01,2013-01-17 07:38:00,
2013-01-16 23:43:00,32.7,19.2,30.37,NE,38,0.0,2.0,57,0.00,,CLR,0.00,VWS V14.01,2013-01-17 07:43:00,
2013-01-16 23:48:00,32.5,19.0,30.37,NE,38,1.0,3.0,57,0.00,,CLR,0.00,VWS V14.01,2013-01-17 07:48:00,
2013-01-16 23:53:00,32.4,18.9,30.37,NE,38,0.0,2.0,57,0.00,,CLR,0.00,VWS V14.01,2013-01-17 07:53:00,
2013-01-16 23:58:00,32.4,18.9,30.37,NE,38,0.0,0.0,57,0.00,,CLR,0.00,VWS V14.01,2013-01-17 07:58:00,